Location: LDNL
(36.4545°S, 141.6685°E)
Time: 21:57:04
(UTC+11:00)

Vanguard 1 - Visible Passes

Search period start: 30 January 2023 00:00
Search period end: 09 February 2023 00:00
Orbit: 649 x 3831 km, 34.2° (Epoch: 29 January)

Date Brightness Start Highest point End Pass type
(mag) Time Alt. Az. Time Alt. Az. Time Alt. Az.
30 Jan 11.5 00:25:13 10° W 00:28:45 24° WNW 00:28:45 24° WNW visible
30 Jan 10.4 22:21:32 10° W 22:32:10 72° N 22:35:27 31° ENE visible
31 Jan 12.1 00:46:27 10° W 00:48:07 15° W 00:48:07 15° W visible
31 Jan 10.3 22:42:43 10° W 22:52:46 64° NNW 22:54:50 44° NE visible
01 Feb 10.3 23:03:53 10° W 23:13:15 53° NNW 23:14:13 49° N visible
02 Feb 11.2 20:58:38 10° W 21:12:59 79° N 21:20:25 10° E visible
02 Feb 10.8 23:25:06 10° W 23:33:35 41° NNW 23:33:35 41° NNW visible
03 Feb 11.1 21:20:00 10° W 21:33:43 75° NNW 21:40:18 13° ENE visible
03 Feb 11.4 23:46:26 10° W 23:52:58 29° NW 23:52:58 29° NW visible
04 Feb 11.0 21:41:20 10° W 21:54:23 67° NNW 21:59:41 20° ENE visible
05 Feb 12.0 00:08:04 10° W 00:12:22 20° WNW 00:12:22 20° WNW visible
05 Feb 11.1 22:02:39 10° W 22:14:55 57° NNW 22:19:05 27° NE visible
06 Feb 12.5 00:30:29 10° WNW 00:31:45 12° WNW 00:31:45 12° WNW visible
06 Feb 11.1 22:24:00 10° W 22:35:18 46° NNW 22:38:29 31° NNE visible
07 Feb 11.3 22:45:26 10° W 22:55:30 35° NW 22:57:55 29° N visible
08 Feb 11.7 23:07:07 10° W 23:15:33 26° NW 23:17:21 24° NNW visible
